Time,TemperatureF,DewpointF,PressureIn,WindDirection,WindDirectionDegrees,WindSpeedMPH,WindSpeedGustMPH,Humidity,HourlyPrecipIn,Conditions,Clouds,dailyrainin,SoftwareType,DateUTC
2013-12-08 00:00:00,48.0,0.0,29.70,SSW,202,6.0,20.0,92,0.00,,,0.00,Weather View 32 v70,2013-12-08 00:00:00,
2013-12-08 00:10:00,48.0,0.0,29.71,South,180,9.0,18.0,91,0.00,,,0.00,Weather View 32 v70,2013-12-08 00:10:00,
2013-12-08 00:15:00,48.0,0.0,29.71,WSW,247,2.0,18.0,91,0.00,,,0.00,Weather View 32 v70,2013-12-08 00:15:00,
2013-12-08 00:20:00,48.0,0.0,29.71,South,180,6.0,18.0,90,0.00,,,0.00,Weather View 32 v70,2013-12-08 00:20:00,
2013-12-08 00:25:00,48.0,0.0,29.70,SSW,202,8.0,19.0,90,0.00,,,0.00,Weather View 32 v70,2013-12-08 00:25:00,
2013-12-08 00:30:00,48.0,0.0,29.70,South,180,6.0,19.0,90,0.00,,,0.00,Weather View 32 v70,2013-12-08 00:30:00,
2013-12-08 00:35:00,48.0,0.0,29.70,WSW,247,4.0,19.0,89,0.00,,,0.00,Weather View 32 v70,2013-12-08 00:35:00,
2013-12-08 00:40:00,48.0,0.0,29.70,SSW,202,3.0,19.0,89,0.00,,,0.00,Weather View 32 v70,2013-12-08 00:40:00,
2013-12-08 00:42:00,48.0,0.0,29.70,SSW,202,3.0,19.0,89,0.00,,,0.00,Weather View 32 v70,2013-12-08 00:42:00,
2013-12-08 00:45:00,48.0,0.0,29.70,WSW,247,7.0,19.0,89,0.00,,,0.00,Weather View 32 v70,2013-12-08 00:45:00,
2013-12-08 00:50:00,48.0,0.0,29.70,South,180,6.0,19.0,89,0.00,,,0.00,Weather View 32 v70,2013-12-08 00:50:00,
2013-12-08 01:00:00,48.0,0.0,29.70,SE,135,11.0,19.0,89,0.00,,,0.00,Weather View 32 v70,2013-12-08 01:00:00,
2013-12-08 01:05:00,48.0,0.0,29.70,SSW,202,13.0,19.0,89,0.00,,,0.00,Weather View 32 v70,2013-12-08 01:05:00,
2013-12-08 01:10:00,48.0,0.0,29.70,SSW,202,9.0,19.0,90,0.00,,,0.00,Weather View 32 v70,2013-12-08 01:10:00,
2013-12-08 01:15:00,48.0,0.0,29.69,South,180,9.0,19.0,90,0.00,,,0.00,Weather View 32 v70,2013-12-08 01:15:00,
2013-12-08 01:20:00,48.0,0.0,29.69,South,180,10.0,19.0,90,0.00,,,0.00,Weather View 32 v70,2013-12-08 01:20:00,
2013-12-08 01:25:00,48.0,0.0,29.69,WNW,292,4.0,19.0,90,0.00,,,0.00,Weather View 32 v70,2013-12-08 01:25:00,
2013-12-08 01:30:00,48.0,0.0,29.69,SSW,202,8.0,19.0,90,0.00,,,0.00,Weather View 32 v70,2013-12-08 01:30:00,
2013-12-08 01:35:00,48.0,0.0,29.68,South,180,6.0,19.0,90,0.00,,,0.00,Weather View 32 v70,2013-12-08 01:35:00,
2013-12-08 01:40:00,48.0,0.0,29.68,SSW,202,2.0,28.0,89,0.00,,,0.00,Weather View 32 v70,2013-12-08 01:40:00,
2013-12-08 01:43:00,48.0,0.0,29.68,SSW,202,2.0,28.0,89,0.00,,,0.00,Weather View 32 v70,2013-12-08 01:43:00,
2013-12-08 01:45:00,48.0,0.0,29.68,WSW,247,3.0,28.0,90,0.00,,,0.00,Weather View 32 v70,2013-12-08 01:45:00,
2013-12-08 01:50:00,48.0,0.0,29.68,SW,225,7.0,28.0,90,0.00,,,0.00,Weather View 32 v70,2013-12-08 01:50:00,
2013-12-08 01:55:00,48.0,0.0,29.67,South,180,9.0,28.0,90,0.00,,,0.00,Weather View 32 v70,2013-12-08 01:55:00,
2013-12-08 02:00:00,48.0,0.0,29.67,SSW,202,4.0,28.0,90,0.00,,,0.00,Weather View 32 v70,2013-12-08 02:00:00,
2013-12-08 02:05:00,48.0,0.0,29.67,WSW,247,7.0,28.0,90,0.00,,,0.00,Weather View 32 v70,2013-12-08 02:05:00,
2013-12-08 02:10:00,48.0,0.0,29.67,WSW,247,6.0,28.0,90,0.00,,,0.00,Weather View 32 v70,2013-12-08 02:10:00,
2013-12-08 02:15:00,48.0,0.0,29.67,SW,225,7.0,28.0,90,0.00,,,0.00,Weather View 32 v70,2013-12-08 02:15:00,
2013-12-08 02:20:00,48.0,0.0,29.67,WSW,247,7.0,28.0,90,0.00,,,0.00,Weather View 32 v70,2013-12-08 02:20:00,
2013-12-08 02:25:00,48.0,0.0,29.67,SSW,202,7.0,28.0,90,0.00,,,0.00,Weather View 32 v70,2013-12-08 02:25:00,
2013-12-08 02:30:00,48.0,0.0,29.67,West,270,12.0,28.0,90,0.00,,,0.00,Weather View 32 v70,2013-12-08 02:30:00,
2013-12-08 02:35:00,48.0,0.0,29.66,WSW,247,8.0,28.0,90,0.00,,,0.00,Weather View 32 v70,2013-12-08 02:35:00,
2013-12-08 02:40:00,48.0,0.0,29.66,South,180,6.0,22.0,89,0.00,,,0.00,Weather View 32 v70,2013-12-08 02:40:00,
2013-12-08 02:43:00,48.0,0.0,29.66,South,180,6.0,22.0,89,0.00,,,0.00,Weather View 32 v70,2013-12-08 02:43:00,
2013-12-08 02:45:00,49.0,0.0,29.66,SSW,202,3.0,22.0,89,0.00,,,0.00,Weather View 32 v70,2013-12-08 02:45:00,
2013-12-08 02:50:00,49.0,0.0,29.66,SE,135,2.0,22.0,89,0.00,,,0.00,Weather View 32 v70,2013-12-08 02:50:00,
2013-12-08 02:55:00,49.0,0.0,29.66,WSW,247,6.0,22.0,88,0.00,,,0.00,Weather View 32 v70,2013-12-08 02:55:00,
2013-12-08 03:00:00,49.0,0.0,29.66,South,180,6.0,22.0,88,0.00,,,0.00,Weather View 32 v70,2013-12-08 03:00:00,
2013-12-08 03:10:00,48.0,0.0,29.65,South,180,12.0,22.0,88,0.00,,,0.00,Weather View 32 v70,2013-12-08 03:10:00,
2013-12-08 03:15:00,49.0,0.0,29.65,WSW,247,6.0,22.0,88,0.00,,,0.00,Weather View 32 v70,2013-12-08 03:15:00,
2013-12-08 03:20:00,48.0,0.0,29.65,SSW,202,7.0,22.0,88,0.00,,,0.00,Weather View 32 v70,2013-12-08 03:20:00,
2013-12-08 03:25:00,48.0,0.0,29.63,SW,225,8.0,22.0,88,0.00,,,0.00,Weather View 32 v70,2013-12-08 03:25:00,
2013-12-08 03:30:00,48.0,0.0,29.63,South,180,19.0,25.0,88,0.00,,,0.00,Weather View 32 v70,2013-12-08 03:30:00,
2013-12-08 03:35:00,48.0,0.0,29.63,SSW,202,10.0,25.0,88,0.00,,,0.00,Weather View 32 v70,2013-12-08 03:35:00,
2013-12-08 03:40:00,48.0,0.0,29.63,SSW,202,16.0,25.0,88,0.00,,,0.00,Weather View 32 v70,2013-12-08 03:40:00,
2013-12-08 03:44:00,48.0,0.0,29.63,SSW,202,16.0,25.0,88,0.00,,,0.00,Weather View 32 v70,2013-12-08 03:44:00,
2013-12-08 03:45:00,48.0,0.0,29.63,SSW,202,8.0,25.0,88,0.00,,,0.00,Weather View 32 v70,2013-12-08 03:45:00,
2013-12-08 03:50:00,48.0,0.0,29.63,WSW,247,4.0,25.0,88,0.00,,,0.00,Weather View 32 v70,2013-12-08 03:50:00,
2013-12-08 03:55:00,48.0,0.0,29.63,SW,225,6.0,25.0,88,0.00,,,0.00,Weather View 32 v70,2013-12-08 03:55:00,
2013-12-08 04:00:00,48.0,0.0,29.63,WSW,247,4.0,25.0,88,0.00,,,0.00,Weather View 32 v70,2013-12-08 04:00:00,
2013-12-08 04:05:00,48.0,0.0,29.63,South,180,9.0,25.0,88,0.00,,,0.00,Weather View 32 v70,2013-12-08 04:05:00,
2013-12-08 04:10:00,48.0,0.0,29.63,WSW,247,2.0,25.0,88,0.00,,,0.00,Weather View 32 v70,2013-12-08 04:10:00,
2013-12-08 04:15:00,49.0,0.0,29.62,South,180,17.0,25.0,88,0.00,,,0.00,Weather View 32 v70,2013-12-08 04:15:00,
2013-12-08 04:20:00,49.0,0.0,29.62,SW,225,7.0,29.0,88,0.00,,,0.00,Weather View 32 v70,2013-12-08 04:20:00,
2013-12-08 04:25:00,49.0,0.0,29.62,East,90,6.0,29.0,88,0.00,,,0.00,Weather View 32 v70,2013-12-08 04:25:00,
2013-12-08 04:30:00,49.0,0.0,29.62,SSW,202,13.0,29.0,88,0.00,,,0.00,Weather View 32 v70,2013-12-08 04:30:00,
2013-12-08 04:35:00,49.0,0.0,29.62,South,180,10.0,29.0,88,0.00,,,0.00,Weather View 32 v70,2013-12-08 04:35:00,
2013-12-08 04:40:00,49.0,0.0,29.62,SW,225,9.0,29.0,88,0.00,,,0.00,Weather View 32 v70,2013-12-08 04:40:00,
2013-12-08 04:44:00,49.0,0.0,29.62,SW,225,9.0,29.0,88,0.00,,,0.00,Weather View 32 v70,2013-12-08 04:44:00,
2013-12-08 04:50:00,49.0,0.0,29.61,West,270,8.0,29.0,88,0.00,,,0.00,Weather View 32 v70,2013-12-08 04:50:00,
2013-12-08 04:55:00,49.0,0.0,29.62,SSW,202,6.0,29.0,88,0.00,,,0.00,Weather View 32 v70,2013-12-08 04:55:00,
2013-12-08 05:00:00,49.0,0.0,29.62,SSW,202,10.0,29.0,91,0.00,,,0.00,Weather View 32 v70,2013-12-08 05:00:00,
2013-12-08 05:05:00,48.0,0.0,29.61,SSW,202,7.0,29.0,92,0.00,,,0.00,Weather View 32 v70,2013-12-08 05:05:00,
2013-12-08 05:10:00,48.0,0.0,29.61,SSW,202,6.0,29.0,92,0.00,,,0.00,Weather View 32 v70,2013-12-08 05:10:00,
2013-12-08 05:15:00,48.0,0.0,29.61,SSW,202,6.0,29.0,92,0.00,,,0.00,Weather View 32 v70,2013-12-08 05:15:00,
2013-12-08 05:20:00,48.0,0.0,29.61,SSW,202,9.0,26.0,92,0.00,,,0.00,Weather View 32 v70,2013-12-08 05:20:00,
2013-12-08 05:25:00,48.0,0.0,29.61,South,180,5.0,26.0,93,0.00,,,0.00,Weather View 32 v70,2013-12-08 05:25:00,
2013-12-08 05:30:00,48.0,0.0,29.61,WNW,292,7.0,26.0,95,0.00,,,0.00,Weather View 32 v70,2013-12-08 05:30:00,
2013-12-08 05:35:00,48.0,0.0,29.62,SW,225,7.0,26.0,95,0.00,,,0.00,Weather View 32 v70,2013-12-08 05:35:00,
2013-12-08 05:40:00,48.0,0.0,29.62,SW,225,5.0,26.0,95,0.00,,,0.00,Weather View 32 v70,2013-12-08 05:40:00,
2013-12-08 05:45:00,48.0,0.0,29.62,West,270,5.0,26.0,96,0.00,,,0.00,Weather View 32 v70,2013-12-08 05:45:00,
2013-12-08 05:50:00,48.0,0.0,29.62,WSW,247,8.0,26.0,96,0.00,,,0.00,Weather View 32 v70,2013-12-08 05:50:00,
2013-12-08 05:55:00,48.0,0.0,29.62,SSW,202,10.0,26.0,95,0.00,,,0.00,Weather View 32 v70,2013-12-08 05:55:00,
2013-12-08 06:00:00,48.0,0.0,29.62,SW,225,1.0,26.0,94,0.00,,,0.00,Weather View 32 v70,2013-12-08 06:00:00,
2013-12-08 06:05:00,49.0,0.0,29.61,West,270,6.0,20.0,94,0.00,,,0.00,Weather View 32 v70,2013-12-08 06:05:00,
2013-12-08 06:10:00,49.0,0.0,29.61,SSW,202,10.0,20.0,94,0.00,,,0.00,Weather View 32 v70,2013-12-08 06:10:00,
2013-12-08 06:15:00,49.0,0.0,29.62,SSW,202,7.0,20.0,93,0.00,,,0.00,Weather View 32 v70,2013-12-08 06:15:00,
2013-12-08 06:20:00,49.0,0.0,29.62,West,270,7.0,20.0,92,0.00,,,0.00,Weather View 32 v70,2013-12-08 06:20:00,
2013-12-08 06:25:00,49.0,0.0,29.62,WSW,247,3.0,20.0,92,0.00,,,0.00,Weather View 32 v70,2013-12-08 06:25:00,
2013-12-08 06:30:00,49.0,0.0,29.62,South,180,6.0,20.0,93,0.00,,,0.00,Weather View 32 v70,2013-12-08 06:30:00,
2013-12-08 06:35:00,49.0,0.0,29.63,South,180,5.0,20.0,93,0.00,,,0.00,Weather View 32 v70,2013-12-08 06:35:00,
2013-12-08 06:40:00,49.0,0.0,29.63,WSW,247,7.0,20.0,94,0.00,,,0.00,Weather View 32 v70,2013-12-08 06:40:00,
2013-12-08 06:45:00,49.0,0.0,29.63,SW,225,6.0,20.0,94,0.00,,,0.00,Weather View 32 v70,2013-12-08 06:45:00,
2013-12-08 06:50:00,49.0,0.0,29.63,SW,225,5.0,20.0,94,0.00,,,0.00,Weather View 32 v70,2013-12-08 06:50:00,
2013-12-08 06:55:00,49.0,0.0,29.63,West,270,6.0,20.0,94,0.00,,,0.00,Weather View 32 v70,2013-12-08 06:55:00,
2013-12-08 07:00:00,49.0,0.0,29.63,SW,225,6.0,18.0,94,0.00,,,0.00,Weather View 32 v70,2013-12-08 07:00:00,
2013-12-08 07:05:00,49.0,0.0,29.63,WSW,247,8.0,18.0,95,0.00,,,0.00,Weather View 32 v70,2013-12-08 07:05:00,
2013-12-08 07:10:00,49.0,0.0,29.63,WSW,247,9.0,18.0,95,0.00,,,0.00,Weather View 32 v70,2013-12-08 07:10:00,
2013-12-08 07:15:00,49.0,0.0,29.63,SW,225,5.0,16.0,95,0.00,,,0.00,Weather View 32 v70,2013-12-08 07:15:00,
2013-12-08 07:20:00,49.0,0.0,29.63,South,180,5.0,16.0,96,0.00,,,0.00,Weather View 32 v70,2013-12-08 07:20:00,
2013-12-08 07:25:00,49.0,0.0,29.62,West,270,7.0,16.0,96,0.00,,,0.00,Weather View 32 v70,2013-12-08 07:25:00,
2013-12-08 07:30:00,49.0,0.0,29.62,NW,315,7.0,16.0,95,0.00,,,0.00,Weather View 32 v70,2013-12-08 07:30:00,
2013-12-08 07:35:00,50.0,0.0,29.61,SW,225,6.0,16.0,96,0.00,,,0.00,Weather View 32 v70,2013-12-08 07:35:00,
2013-12-08 07:40:00,50.0,0.0,29.61,SW,225,4.0,16.0,95,0.00,,,0.00,Weather View 32 v70,2013-12-08 07:40:00,
2013-12-08 07:45:00,50.0,0.0,29.61,SSW,202,9.0,16.0,97,0.00,,,0.00,Weather View 32 v70,2013-12-08 07:45:00,
2013-12-08 07:46:00,50.0,0.0,29.61,SSW,202,9.0,16.0,97,0.00,,,0.00,Weather View 32 v70,2013-12-08 07:46:00,
2013-12-08 07:50:00,49.0,0.0,29.61,SW,225,7.0,16.0,96,0.00,,,0.00,Weather View 32 v70,2013-12-08 07:50:00,
2013-12-08 07:55:00,49.0,0.0,29.63,WSW,247,4.0,16.0,97,0.00,,,0.00,Weather View 32 v70,2013-12-08 07:55:00,
2013-12-08 08:00:00,49.0,0.0,29.63,WSW,247,2.0,16.0,97,0.00,,,0.00,Weather View 32 v70,2013-12-08 08:00:00,
2013-12-08 08:05:00,49.0,0.0,29.62,SSW,202,9.0,16.0,97,0.00,,,0.00,Weather View 32 v70,2013-12-08 08:05:00,
2013-12-08 08:10:00,49.0,0.0,29.62,WSW,247,1.0,16.0,96,0.00,,,0.00,Weather View 32 v70,2013-12-08 08:10:00,
2013-12-08 08:15:00,50.0,0.0,29.61,SSE,157,6.0,17.0,97,0.00,,,0.00,Weather View 32 v70,2013-12-08 08:15:00,
2013-12-08 08:20:00,50.0,0.0,29.61,WSW,247,7.0,17.0,97,0.00,,,0.00,Weather View 32 v70,2013-12-08 08:20:00,
2013-12-08 08:25:00,50.0,0.0,29.61,WSW,247,7.0,17.0,97,0.00,,,0.00,Weather View 32 v70,2013-12-08 08:25:00,
2013-12-08 08:30:00,50.0,0.0,29.61,SSW,202,9.0,17.0,96,0.01,,,0.01,Weather View 32 v70,2013-12-08 08:30:00,
2013-12-08 08:35:00,50.0,0.0,29.62,WSW,247,3.0,17.0,95,0.01,,,0.01,Weather View 32 v70,2013-12-08 08:35:00,
2013-12-08 08:40:00,50.0,0.0,29.62,South,180,14.0,17.0,95,0.01,,,0.01,Weather View 32 v70,2013-12-08 08:40:00,
2013-12-08 08:45:00,51.0,0.0,29.62,SW,225,5.0,17.0,94,0.01,,,0.01,Weather View 32 v70,2013-12-08 08:45:00,
2013-12-08 08:47:00,51.0,0.0,29.62,SW,225,5.0,17.0,94,0.01,,,0.01,Weather View 32 v70,2013-12-08 08:47:00,
2013-12-08 08:50:00,50.0,0.0,29.62,South,180,10.0,17.0,95,0.01,,,0.01,Weather View 32 v70,2013-12-08 08:50:00,
2013-12-08 08:55:00,50.0,0.0,29.63,SSW,202,9.0,17.0,95,0.01,,,0.01,Weather View 32 v70,2013-12-08 08:55:00,
2013-12-08 09:00:00,50.0,0.0,29.63,SW,225,7.0,17.0,96,0.01,,,0.01,Weather View 32 v70,2013-12-08 09:00:00,
2013-12-08 09:05:00,50.0,0.0,29.63,SSW,202,9.0,17.0,96,0.01,,,0.01,Weather View 32 v70,2013-12-08 09:05:00,
2013-12-08 09:10:00,50.0,0.0,29.63,WSW,247,4.0,17.0,97,0.01,,,0.01,Weather View 32 v70,2013-12-08 09:10:00,
2013-12-08 09:15:00,50.0,0.0,29.63,SW,225,5.0,17.0,97,0.01,,,0.01,Weather View 32 v70,2013-12-08 09:15:00,
2013-12-08 09:20:00,50.0,0.0,29.63,WSW,247,4.0,17.0,97,0.01,,,0.01,Weather View 32 v70,2013-12-08 09:20:00,
2013-12-08 09:25:00,50.0,0.0,29.63,WNW,292,8.0,17.0,96,0.01,,,0.01,Weather View 32 v70,2013-12-08 09:25:00,
2013-12-08 09:30:00,50.0,0.0,29.63,SSW,202,9.0,17.0,96,0.00,,,0.01,Weather View 32 v70,2013-12-08 09:30:00,
2013-12-08 09:35:00,51.0,0.0,29.63,SSW,202,6.0,17.0,95,0.00,,,0.01,Weather View 32 v70,2013-12-08 09:35:00,
2013-12-08 09:40:00,51.0,0.0,29.63,WSW,247,6.0,17.0,95,0.00,,,0.01,Weather View 32 v70,2013-12-08 09:40:00,
2013-12-08 09:45:00,51.0,0.0,29.63,South,180,8.0,17.0,95,0.00,,,0.01,Weather View 32 v70,2013-12-08 09:45:00,
2013-12-08 09:47:00,51.0,0.0,29.63,South,180,8.0,17.0,95,0.00,,,0.01,Weather View 32 v70,2013-12-08 09:47:00,
2013-12-08 09:50:00,51.0,0.0,29.63,SW,225,6.0,17.0,95,0.00,,,0.01,Weather View 32 v70,2013-12-08 09:50:00,
2013-12-08 09:55:00,50.0,0.0,29.63,WSW,247,7.0,17.0,97,0.00,,,0.01,Weather View 32 v70,2013-12-08 09:55:00,
2013-12-08 10:00:00,50.0,0.0,29.63,SSW,202,9.0,17.0,97,0.00,,,0.01,Weather View 32 v70,2013-12-08 10:00:00,
2013-12-08 10:05:00,50.0,0.0,29.63,SSW,202,7.0,17.0,97,0.00,,,0.01,Weather View 32 v70,2013-12-08 10:05:00,
2013-12-08 10:10:00,50.0,0.0,29.63,SSW,202,10.0,17.0,97,0.00,,,0.01,Weather View 32 v70,2013-12-08 10:10:00,
2013-12-08 10:15:00,51.0,0.0,29.62,WSW,247,6.0,18.0,96,0.00,,,0.01,Weather View 32 v70,2013-12-08 10:15:00,
2013-12-08 10:20:00,51.0,0.0,29.62,SW,225,6.0,18.0,95,0.00,,,0.01,Weather View 32 v70,2013-12-08 10:20:00,
2013-12-08 10:30:00,51.0,0.0,29.62,SSW,202,8.0,18.0,93,0.00,,,0.01,Weather View 32 v70,2013-12-08 10:30:00,
2013-12-08 10:35:00,51.0,0.0,29.62,South,180,8.0,18.0,93,0.00,,,0.01,Weather View 32 v70,2013-12-08 10:35:00,
2013-12-08 10:40:00,52.0,0.0,29.62,SW,225,6.0,19.0,92,0.00,,,0.01,Weather View 32 v70,2013-12-08 10:40:00,
2013-12-08 10:45:00,52.0,0.0,29.62,South,180,10.0,19.0,91,0.00,,,0.01,Weather View 32 v70,2013-12-08 10:45:00,
2013-12-08 10:48:00,52.0,0.0,29.62,South,180,10.0,19.0,91,0.00,,,0.01,Weather View 32 v70,2013-12-08 10:48:00,
2013-12-08 10:50:00,52.0,0.0,29.62,SW,225,9.0,25.0,90,0.00,,,0.01,Weather View 32 v70,2013-12-08 10:50:00,
2013-12-08 10:55:00,52.0,0.0,29.61,SSW,202,2.0,25.0,90,0.00,,,0.01,Weather View 32 v70,2013-12-08 10:55:00,
2013-12-08 11:00:00,52.0,0.0,29.61,SW,225,6.0,25.0,90,0.00,,,0.01,Weather View 32 v70,2013-12-08 11:00:00,
2013-12-08 11:05:00,52.0,0.0,29.61,SSW,202,7.0,25.0,91,0.00,,,0.01,Weather View 32 v70,2013-12-08 11:05:00,
2013-12-08 11:10:00,52.0,0.0,29.61,SSW,202,7.0,25.0,91,0.00,,,0.01,Weather View 32 v70,2013-12-08 11:10:00,
2013-12-08 11:15:00,52.0,0.0,29.61,South,180,6.0,25.0,92,0.00,,,0.01,Weather View 32 v70,2013-12-08 11:15:00,
2013-12-08 11:20:00,52.0,0.0,29.61,South,180,13.0,25.0,92,0.00,,,0.01,Weather View 32 v70,2013-12-08 11:20:00,
2013-12-08 11:25:00,52.0,0.0,29.61,West,270,2.0,25.0,92,0.00,,,0.01,Weather View 32 v70,2013-12-08 11:25:00,
2013-12-08 11:30:00,52.0,0.0,29.61,SW,225,7.0,25.0,92,0.00,,,0.01,Weather View 32 v70,2013-12-08 11:30:00,
2013-12-08 11:35:00,52.0,0.0,29.61,SE,135,1.0,25.0,93,0.00,,,0.01,Weather View 32 v70,2013-12-08 11:35:00,
2013-12-08 11:40:00,52.0,0.0,29.61,South,180,12.0,25.0,92,0.00,,,0.01,Weather View 32 v70,2013-12-08 11:40:00,
2013-12-08 11:45:00,52.0,0.0,29.60,South,180,11.0,25.0,92,0.00,,,0.01,Weather View 32 v70,2013-12-08 11:45:00,
2013-12-08 11:48:00,52.0,0.0,29.60,South,180,11.0,25.0,92,0.00,,,0.01,Weather View 32 v70,2013-12-08 11:48:00,
2013-12-08 11:50:00,52.0,0.0,29.60,SW,225,6.0,22.0,91,0.00,,,0.01,Weather View 32 v70,2013-12-08 11:50:00,
2013-12-08 11:55:00,52.0,0.0,29.60,SW,225,7.0,22.0,91,0.00,,,0.01,Weather View 32 v70,2013-12-08 11:55:00,
2013-12-08 12:00:00,52.0,0.0,29.60,West,270,7.0,22.0,92,0.00,,,0.01,Weather View 32 v70,2013-12-08 12:00:00,
2013-12-08 12:05:00,52.0,0.0,29.59,South,180,10.0,22.0,92,0.00,,,0.01,Weather View 32 v70,2013-12-08 12:05:00,
2013-12-08 12:10:00,52.0,0.0,29.59,SW,225,4.0,22.0,91,0.00,,,0.01,Weather View 32 v70,2013-12-08 12:10:00,
2013-12-08 12:15:00,52.0,0.0,29.60,West,270,10.0,23.0,91,0.00,,,0.01,Weather View 32 v70,2013-12-08 12:15:00,
2013-12-08 12:20:00,52.0,0.0,29.60,SW,225,5.0,23.0,91,0.00,,,0.01,Weather View 32 v70,2013-12-08 12:20:00,
2013-12-08 12:25:00,52.0,0.0,29.60,SSE,157,9.0,23.0,91,0.00,,,0.01,Weather View 32 v70,2013-12-08 12:25:00,
2013-12-08 12:30:00,52.0,0.0,29.60,SW,225,4.0,23.0,92,0.00,,,0.01,Weather View 32 v70,2013-12-08 12:30:00,
2013-12-08 12:40:00,52.0,0.0,29.59,South,180,12.0,23.0,92,0.00,,,0.01,Weather View 32 v70,2013-12-08 12:40:00,
2013-12-08 12:45:00,52.0,0.0,29.59,South,180,7.0,23.0,92,0.00,,,0.01,Weather View 32 v70,2013-12-08 12:45:00,
2013-12-08 12:49:00,52.0,0.0,29.59,South,180,7.0,23.0,92,0.00,,,0.01,Weather View 32 v70,2013-12-08 12:49:00,
2013-12-08 12:50:00,52.0,0.0,29.59,SW,225,7.0,23.0,92,0.00,,,0.01,Weather View 32 v70,2013-12-08 12:50:00,
2013-12-08 12:55:00,52.0,0.0,29.59,SW,225,6.0,23.0,92,0.01,,,0.02,Weather View 32 v70,2013-12-08 12:55:00,
2013-12-08 13:00:00,52.0,0.0,29.59,South,180,8.0,23.0,92,0.01,,,0.02,Weather View 32 v70,2013-12-08 13:00:00,
2013-12-08 13:05:00,52.0,0.0,29.59,South,180,6.0,23.0,92,0.01,,,0.02,Weather View 32 v70,2013-12-08 13:05:00,
2013-12-08 13:10:00,52.0,0.0,29.59,South,180,7.0,23.0,92,0.01,,,0.02,Weather View 32 v70,2013-12-08 13:10:00,
2013-12-08 13:15:00,52.0,0.0,29.59,SW,225,9.0,23.0,91,0.01,,,0.02,Weather View 32 v70,2013-12-08 13:15:00,
2013-12-08 13:20:00,52.0,0.0,29.59,SSE,157,17.0,22.0,92,0.01,,,0.02,Weather View 32 v70,2013-12-08 13:20:00,
2013-12-08 13:25:00,52.0,0.0,29.59,SW,225,6.0,22.0,92,0.01,,,0.02,Weather View 32 v70,2013-12-08 13:25:00,
2013-12-08 13:30:00,52.0,0.0,29.59,SSW,202,7.0,22.0,93,0.01,,,0.02,Weather View 32 v70,2013-12-08 13:30:00,
2013-12-08 13:35:00,52.0,0.0,29.59,SSW,202,7.0,22.0,93,0.01,,,0.02,Weather View 32 v70,2013-12-08 13:35:00,
2013-12-08 13:40:00,52.0,0.0,29.59,WSW,247,5.0,22.0,94,0.01,,,0.02,Weather View 32 v70,2013-12-08 13:40:00,
2013-12-08 13:45:00,52.0,0.0,29.59,South,180,9.0,22.0,94,0.01,,,0.02,Weather View 32 v70,2013-12-08 13:45:00,
2013-12-08 13:49:00,52.0,0.0,29.59,South,180,9.0,22.0,94,0.01,,,0.02,Weather View 32 v70,2013-12-08 13:49:00,
2013-12-08 13:55:00,52.0,0.0,29.59,SW,225,6.0,18.0,95,0.00,,,0.02,Weather View 32 v70,2013-12-08 13:55:00,
2013-12-08 14:00:00,52.0,0.0,29.59,SW,225,7.0,18.0,95,0.00,,,0.02,Weather View 32 v70,2013-12-08 14:00:00,
2013-12-08 14:05:00,52.0,0.0,29.59,West,270,3.0,18.0,95,0.00,,,0.02,Weather View 32 v70,2013-12-08 14:05:00,
2013-12-08 14:10:00,52.0,0.0,29.59,South,180,9.0,18.0,94,0.00,,,0.02,Weather View 32 v70,2013-12-08 14:10:00,
2013-12-08 14:15:00,52.0,0.0,29.59,SSW,202,2.0,20.0,94,0.00,,,0.02,Weather View 32 v70,2013-12-08 14:15:00,
2013-12-08 14:20:00,52.0,0.0,29.59,West,270,3.0,20.0,94,0.00,,,0.02,Weather View 32 v70,2013-12-08 14:20:00,
2013-12-08 14:25:00,52.0,0.0,29.59,SSW,202,12.0,20.0,94,0.00,,,0.02,Weather View 32 v70,2013-12-08 14:25:00,
2013-12-08 14:30:00,52.0,0.0,29.59,SSW,202,12.0,20.0,94,0.00,,,0.02,Weather View 32 v70,2013-12-08 14:30:00,
2013-12-08 14:35:00,52.0,0.0,29.59,South,180,3.0,20.0,95,0.00,,,0.02,Weather View 32 v70,2013-12-08 14:35:00,
2013-12-08 14:40:00,52.0,0.0,29.59,SW,225,7.0,20.0,95,0.00,,,0.02,Weather View 32 v70,2013-12-08 14:40:00,
2013-12-08 14:45:00,52.0,0.0,29.59,South,180,6.0,20.0,96,0.00,,,0.02,Weather View 32 v70,2013-12-08 14:45:00,
2013-12-08 14:50:00,52.0,0.0,29.59,WSW,247,7.0,20.0,96,0.00,,,0.02,Weather View 32 v70,2013-12-08 14:50:00,
2013-12-08 14:55:00,52.0,0.0,29.60,South,180,15.0,20.0,95,0.00,,,0.02,Weather View 32 v70,2013-12-08 14:55:00,
2013-12-08 15:00:00,52.0,0.0,29.60,SSW,202,7.0,20.0,95,0.00,,,0.02,Weather View 32 v70,2013-12-08 15:00:00,
2013-12-08 15:05:00,52.0,0.0,29.60,South,180,2.0,20.0,95,0.00,,,0.02,Weather View 32 v70,2013-12-08 15:05:00,
2013-12-08 15:10:00,52.0,0.0,29.60,SW,225,7.0,20.0,95,0.00,,,0.02,Weather View 32 v70,2013-12-08 15:10:00,
2013-12-08 15:15:00,52.0,0.0,29.60,NW,315,4.0,19.0,95,0.00,,,0.02,Weather View 32 v70,2013-12-08 15:15:00,
2013-12-08 15:20:00,52.0,0.0,29.60,WSW,247,7.0,19.0,95,0.00,,,0.02,Weather View 32 v70,2013-12-08 15:20:00,
2013-12-08 15:25:00,52.0,0.0,29.60,SSW,202,6.0,19.0,95,0.00,,,0.02,Weather View 32 v70,2013-12-08 15:25:00,
2013-12-08 15:30:00,52.0,0.0,29.60,WSW,247,7.0,18.0,95,0.00,,,0.02,Weather View 32 v70,2013-12-08 15:30:00,
2013-12-08 15:35:00,52.0,0.0,29.60,WSW,247,7.0,18.0,95,0.00,,,0.02,Weather View 32 v70,2013-12-08 15:35:00,
2013-12-08 15:40:00,53.0,0.0,29.60,WSW,247,6.0,18.0,95,0.00,,,0.02,Weather View 32 v70,2013-12-08 15:40:00,
2013-12-08 15:45:00,52.0,0.0,29.60,SW,225,6.0,18.0,95,0.00,,,0.02,Weather View 32 v70,2013-12-08 15:45:00,
2013-12-08 15:50:00,52.0,0.0,29.60,South,180,2.0,18.0,95,0.00,,,0.02,Weather View 32 v70,2013-12-08 15:50:00,
2013-12-08 15:55:00,52.0,0.0,29.60,SSW,202,7.0,18.0,96,0.00,,,0.02,Weather View 32 v70,2013-12-08 15:55:00,
2013-12-08 16:00:00,52.0,0.0,29.60,West,270,4.0,18.0,96,0.00,,,0.02,Weather View 32 v70,2013-12-08 16:00:00,
2013-12-08 16:05:00,52.0,0.0,29.60,SW,225,6.0,18.0,96,0.00,,,0.02,Weather View 32 v70,2013-12-08 16:05:00,
2013-12-08 16:10:00,52.0,0.0,29.60,WSW,247,4.0,18.0,96,0.00,,,0.02,Weather View 32 v70,2013-12-08 16:10:00,
2013-12-08 16:15:00,52.0,0.0,29.61,SSW,202,7.0,17.0,96,0.00,,,0.02,Weather View 32 v70,2013-12-08 16:15:00,
2013-12-08 16:20:00,52.0,0.0,29.61,SW,225,6.0,17.0,96,0.00,,,0.02,Weather View 32 v70,2013-12-08 16:20:00,
2013-12-08 16:25:00,52.0,0.0,29.60,South,180,7.0,17.0,96,0.00,,,0.02,Weather View 32 v70,2013-12-08 16:25:00,
2013-12-08 16:30:00,52.0,0.0,29.60,SW,225,6.0,17.0,96,0.00,,,0.02,Weather View 32 v70,2013-12-08 16:30:00,
2013-12-08 16:35:00,52.0,0.0,29.61,SW,225,9.0,17.0,96,0.00,,,0.02,Weather View 32 v70,2013-12-08 16:35:00,
2013-12-08 16:40:00,52.0,0.0,29.61,SSW,202,6.0,17.0,96,0.00,,,0.02,Weather View 32 v70,2013-12-08 16:40:00,
2013-12-08 16:50:00,52.0,0.0,29.61,SW,225,9.0,17.0,96,0.00,,,0.02,Weather View 32 v70,2013-12-08 16:50:00,
2013-12-08 16:51:00,52.0,0.0,29.61,SW,225,9.0,17.0,96,0.00,,,0.02,Weather View 32 v70,2013-12-08 16:51:00,
2013-12-08 17:00:00,52.0,0.0,29.61,South,180,9.0,17.0,97,0.00,,,0.02,Weather View 32 v70,2013-12-08 17:00:00,
2013-12-08 17:05:00,52.0,0.0,29.61,SSW,202,6.0,17.0,97,0.00,,,0.02,Weather View 32 v70,2013-12-08 17:05:00,
2013-12-08 17:10:00,52.0,0.0,29.61,SSW,202,2.0,17.0,98,0.00,,,0.02,Weather View 32 v70,2013-12-08 17:10:00,
2013-12-08 17:15:00,52.0,0.0,29.61,SW,225,7.0,17.0,98,0.00,,,0.02,Weather View 32 v70,2013-12-08 17:15:00,
2013-12-08 17:20:00,52.0,0.0,29.61,SSW,202,5.0,17.0,98,0.00,,,0.02,Weather View 32 v70,2013-12-08 17:20:00,
2013-12-08 17:25:00,52.0,0.0,29.61,SSW,202,10.0,17.0,98,0.00,,,0.02,Weather View 32 v70,2013-12-08 17:25:00,
2013-12-08 17:30:00,52.0,0.0,29.61,SSW,202,6.0,17.0,98,0.00,,,0.02,Weather View 32 v70,2013-12-08 17:30:00,
2013-12-08 17:35:00,52.0,0.0,29.60,South,180,9.0,17.0,98,0.00,,,0.02,Weather View 32 v70,2013-12-08 17:35:00,
2013-12-08 17:45:00,52.0,0.0,29.60,South,180,6.0,17.0,97,0.00,,,0.02,Weather View 32 v70,2013-12-08 17:45:00,
2013-12-08 17:50:00,52.0,0.0,29.60,South,180,6.0,16.0,97,0.00,,,0.02,Weather View 32 v70,2013-12-08 17:50:00,
2013-12-08 17:51:00,52.0,0.0,29.60,South,180,6.0,16.0,97,0.00,,,0.02,Weather View 32 v70,2013-12-08 17:51:00,
2013-12-08 17:55:00,52.0,0.0,29.60,WSW,247,5.0,16.0,97,0.00,,,0.02,Weather View 32 v70,2013-12-08 17:55:00,
2013-12-08 18:00:00,52.0,0.0,29.60,SW,225,7.0,16.0,97,0.00,,,0.02,Weather View 32 v70,2013-12-08 18:00:00,
2013-12-08 18:05:00,52.0,0.0,29.60,SSW,202,6.0,16.0,97,0.00,,,0.02,Weather View 32 v70,2013-12-08 18:05:00,
2013-12-08 18:10:00,52.0,0.0,29.60,South,180,10.0,16.0,97,0.00,,,0.02,Weather View 32 v70,2013-12-08 18:10:00,
2013-12-08 18:15:00,52.0,0.0,29.60,SW,225,8.0,19.0,96,0.01,,,0.03,Weather View 32 v70,2013-12-08 18:15:00,
2013-12-08 18:20:00,52.0,0.0,29.60,South,180,3.0,19.0,96,0.01,,,0.03,Weather View 32 v70,2013-12-08 18:20:00,
2013-12-08 18:25:00,52.0,0.0,29.60,SSW,202,5.0,19.0,96,0.01,,,0.03,Weather View 32 v70,2013-12-08 18:25:00,
2013-12-08 18:30:00,53.0,0.0,29.60,SSW,202,10.0,20.0,96,0.01,,,0.03,Weather View 32 v70,2013-12-08 18:30:00,
2013-12-08 18:35:00,53.0,0.0,29.61,SSW,202,9.0,20.0,96,0.01,,,0.03,Weather View 32 v70,2013-12-08 18:35:00,
2013-12-08 18:40:00,53.0,0.0,29.61,NNW,337,5.0,25.0,95,0.01,,,0.03,Weather View 32 v70,2013-12-08 18:40:00,
2013-12-08 18:45:00,53.0,0.0,29.60,SSW,202,6.0,25.0,95,0.01,,,0.03,Weather View 32 v70,2013-12-08 18:45:00,
2013-12-08 18:50:00,53.0,0.0,29.60,SSE,157,6.0,25.0,95,0.01,,,0.03,Weather View 32 v70,2013-12-08 18:50:00,
2013-12-08 18:52:00,53.0,0.0,29.60,SSE,157,6.0,25.0,95,0.01,,,0.03,Weather View 32 v70,2013-12-08 18:52:00,
2013-12-08 19:00:00,53.0,0.0,29.61,SSW,202,9.0,25.0,95,0.01,,,0.03,Weather View 32 v70,2013-12-08 19:00:00,
2013-12-08 19:05:00,53.0,0.0,29.61,South,180,10.0,25.0,95,0.01,,,0.03,Weather View 32 v70,2013-12-08 19:05:00,
2013-12-08 19:15:00,53.0,0.0,29.61,WSW,247,6.0,25.0,95,0.00,,,0.03,Weather View 32 v70,2013-12-08 19:15:00,
2013-12-08 19:20:00,53.0,0.0,29.61,SSW,202,4.0,25.0,96,0.00,,,0.03,Weather View 32 v70,2013-12-08 19:20:00,
2013-12-08 19:25:00,53.0,0.0,29.62,SW,225,5.0,25.0,97,0.00,,,0.03,Weather View 32 v70,2013-12-08 19:25:00,
2013-12-08 19:30:00,53.0,0.0,29.62,South,180,10.0,25.0,97,0.00,,,0.03,Weather View 32 v70,2013-12-08 19:30:00,
2013-12-08 19:35:00,53.0,0.0,29.63,SSW,202,6.0,25.0,98,0.00,,,0.03,Weather View 32 v70,2013-12-08 19:35:00,
2013-12-08 19:40:00,52.0,0.0,29.63,South,180,1.0,17.0,98,0.00,,,0.03,Weather View 32 v70,2013-12-08 19:40:00,
2013-12-08 19:45:00,52.0,0.0,29.63,SW,225,6.0,17.0,98,0.00,,,0.03,Weather View 32 v70,2013-12-08 19:45:00,
2013-12-08 19:50:00,52.0,0.0,29.63,South,180,13.0,17.0,98,0.00,,,0.03,Weather View 32 v70,2013-12-08 19:50:00,
2013-12-08 19:52:00,52.0,0.0,29.63,South,180,13.0,17.0,98,0.00,,,0.03,Weather View 32 v70,2013-12-08 19:52:00,
2013-12-08 19:55:00,52.0,0.0,29.63,South,180,7.0,17.0,98,0.00,,,0.03,Weather View 32 v70,2013-12-08 19:55:00,
2013-12-08 20:00:00,52.0,0.0,29.63,SSW,202,3.0,17.0,98,0.00,,,0.03,Weather View 32 v70,2013-12-08 20:00:00,
2013-12-08 20:05:00,52.0,0.0,29.63,West,270,3.0,17.0,98,0.00,,,0.03,Weather View 32 v70,2013-12-08 20:05:00,
2013-12-08 20:15:00,53.0,0.0,29.63,South,180,6.0,17.0,97,0.00,,,0.03,Weather View 32 v70,2013-12-08 20:15:00,
2013-12-08 20:20:00,53.0,0.0,29.63,South,180,11.0,17.0,97,0.00,,,0.03,Weather View 32 v70,2013-12-08 20:20:00,
2013-12-08 20:25:00,53.0,0.0,29.63,South,180,7.0,17.0,97,0.00,,,0.03,Weather View 32 v70,2013-12-08 20:25:00,
2013-12-08 20:30:00,53.0,0.0,29.63,WSW,247,6.0,17.0,97,0.00,,,0.03,Weather View 32 v70,2013-12-08 20:30:00,
2013-12-08 20:35:00,53.0,0.0,29.63,South,180,15.0,16.0,97,0.00,,,0.03,Weather View 32 v70,2013-12-08 20:35:00,
2013-12-08 20:40:00,53.0,0.0,29.63,SSW,202,6.0,17.0,96,0.00,,,0.03,Weather View 32 v70,2013-12-08 20:40:00,
2013-12-08 20:45:00,53.0,0.0,29.63,SSW,202,7.0,17.0,96,0.00,,,0.03,Weather View 32 v70,2013-12-08 20:45:00,
2013-12-08 20:50:00,53.0,0.0,29.63,South,180,11.0,17.0,97,0.00,,,0.03,Weather View 32 v70,2013-12-08 20:50:00,
2013-12-08 20:53:00,53.0,0.0,29.63,South,180,11.0,17.0,97,0.00,,,0.03,Weather View 32 v70,2013-12-08 20:53:00,
2013-12-08 20:55:00,53.0,0.0,29.63,South,180,2.0,17.0,97,0.00,,,0.03,Weather View 32 v70,2013-12-08 20:55:00,
2013-12-08 21:00:00,53.0,0.0,29.63,West,270,2.0,17.0,97,0.00,,,0.03,Weather View 32 v70,2013-12-08 21:00:00,
2013-12-08 21:05:00,53.0,0.0,29.64,WNW,292,6.0,17.0,97,0.00,,,0.03,Weather View 32 v70,2013-12-08 21:05:00,
2013-12-08 21:10:00,53.0,0.0,29.64,West,270,2.0,17.0,97,0.00,,,0.03,Weather View 32 v70,2013-12-08 21:10:00,
2013-12-08 21:15:00,53.0,0.0,29.63,SW,225,4.0,17.0,97,0.00,,,0.03,Weather View 32 v70,2013-12-08 21:15:00,
2013-12-08 21:20:00,53.0,0.0,29.63,SSW,202,5.0,17.0,98,0.01,,,0.04,Weather View 32 v70,2013-12-08 21:20:00,
2013-12-08 21:25:00,52.0,0.0,29.64,South,180,1.0,17.0,98,0.01,,,0.04,Weather View 32 v70,2013-12-08 21:25:00,
2013-12-08 21:30:00,52.0,0.0,29.64,WSW,247,4.0,17.0,98,0.01,,,0.04,Weather View 32 v70,2013-12-08 21:30:00,
2013-12-08 21:35:00,53.0,0.0,29.64,SW,225,6.0,17.0,98,0.01,,,0.04,Weather View 32 v70,2013-12-08 21:35:00,
2013-12-08 21:40:00,53.0,0.0,29.64,WNW,292,8.0,16.0,98,0.01,,,0.04,Weather View 32 v70,2013-12-08 21:40:00,
2013-12-08 21:45:00,53.0,0.0,29.64,West,270,5.0,16.0,97,0.01,,,0.04,Weather View 32 v70,2013-12-08 21:45:00,
2013-12-08 21:50:00,53.0,0.0,29.64,SSW,202,7.0,16.0,96,0.01,,,0.04,Weather View 32 v70,2013-12-08 21:50:00,
2013-12-08 21:55:00,53.0,0.0,29.64,WNW,292,3.0,16.0,95,0.01,,,0.04,Weather View 32 v70,2013-12-08 21:55:00,
2013-12-08 22:00:00,53.0,0.0,29.64,SSW,202,6.0,16.0,95,0.01,,,0.04,Weather View 32 v70,2013-12-08 22:00:00,
2013-12-08 22:05:00,53.0,0.0,29.65,SSW,202,4.0,17.0,95,0.01,,,0.04,Weather View 32 v70,2013-12-08 22:05:00,
2013-12-08 22:15:00,53.0,0.0,29.65,SW,225,7.0,20.0,95,0.01,,,0.04,Weather View 32 v70,2013-12-08 22:15:00,
2013-12-08 22:20:00,53.0,0.0,29.65,SSW,202,12.0,20.0,95,0.00,,,0.04,Weather View 32 v70,2013-12-08 22:20:00,
2013-12-08 22:25:00,53.0,0.0,29.66,South,180,7.0,20.0,95,0.00,,,0.04,Weather View 32 v70,2013-12-08 22:25:00,
2013-12-08 22:30:00,53.0,0.0,29.66,South,180,8.0,20.0,95,0.00,,,0.04,Weather View 32 v70,2013-12-08 22:30:00,
2013-12-08 22:35:00,53.0,0.0,29.66,SSW,202,9.0,20.0,94,0.00,,,0.04,Weather View 32 v70,2013-12-08 22:35:00,
2013-12-08 22:40:00,53.0,0.0,29.66,SSW,202,7.0,20.0,94,0.00,,,0.04,Weather View 32 v70,2013-12-08 22:40:00,
2013-12-08 22:45:00,53.0,0.0,29.66,SSW,202,2.0,20.0,93,0.00,,,0.04,Weather View 32 v70,2013-12-08 22:45:00,
2013-12-08 22:50:00,53.0,0.0,29.66,SW,225,6.0,20.0,93,0.00,,,0.04,Weather View 32 v70,2013-12-08 22:50:00,
2013-12-08 22:54:00,53.0,0.0,29.66,SW,225,6.0,20.0,93,0.00,,,0.04,Weather View 32 v70,2013-12-08 22:54:00,
2013-12-08 23:00:00,54.0,0.0,29.66,SSW,202,11.0,20.0,93,-0.04,,,0.00,Weather View 32 v70,2013-12-08 23:00:00,
2013-12-08 23:05:00,54.0,0.0,29.67,South,180,7.0,20.0,93,-0.04,,,0.00,Weather View 32 v70,2013-12-08 23:05:00,
2013-12-08 23:10:00,54.0,0.0,29.67,SSW,202,9.0,18.0,92,-0.04,,,0.00,Weather View 32 v70,2013-12-08 23:10:00,
2013-12-08 23:15:00,54.0,0.0,29.67,SW,225,7.0,19.0,91,-0.04,,,0.00,Weather View 32 v70,2013-12-08 23:15:00,
2013-12-08 23:20:00,54.0,0.0,29.67,South,180,12.0,19.0,91,-0.04,,,0.00,Weather View 32 v70,2013-12-08 23:20:00,
2013-12-08 23:25:00,54.0,0.0,29.67,South,180,7.0,19.0,91,-0.04,,,0.00,Weather View 32 v70,2013-12-08 23:25:00,
2013-12-08 23:30:00,54.0,0.0,29.67,South,180,7.0,19.0,91,-0.04,,,0.00,Weather View 32 v70,2013-12-08 23:30:00,
2013-12-08 23:35:00,54.0,0.0,29.67,SSW,202,6.0,19.0,91,-0.04,,,0.00,Weather View 32 v70,2013-12-08 23:35:00,
2013-12-08 23:40:00,54.0,0.0,29.67,South,180,16.0,19.0,91,-0.04,,,0.00,Weather View 32 v70,2013-12-08 23:40:00,
2013-12-08 23:50:00,54.0,0.0,29.67,SW,225,4.0,19.0,93,-0.04,,,0.00,Weather View 32 v70,2013-12-08 23:50:00,
2013-12-08 23:55:00,54.0,0.0,29.67,SW,225,7.0,19.0,92,0.00,,,0.00,Weather View 32 v70,2013-12-08 23:55:00,